Zurück zum Katalog

STARLINK-5405

AktivKommunikationVLEO
NORAD 54863·PAYLOAD·🇺🇸 United States

Gestartet Dec 28, 2022 von Cape Canaveral Space Force Station

Loading…

Nächste Überflüge (nächste 24 Stunden)

TLE

AktuellSource: CelesTrak SupGP

Epoche: Sep 15, 2026, 01:54 UTC

1 54863C 22177AV  26258.07965278  .00051284  00000+0  18577-2 0  2589
2 54863  42.9999 132.0299 0001199 252.8746 159.0581 15.27549480    15

Verfolge STARLINK-5405 in Echtzeit mit AllMySat

Download on the App Store